| time (UTC) | temp F | wind direction | speed MPH | gust MPH | rain 1hr in | rain 24hr in | rain mn in | humidity % | barometer mb |
| 20260505111803 | 50 | 44 | 8.0 | 13.0 | 0.00 | 0.00 | 0.00 | 87 | 1007.8 |
| 20260505111304 | 50 | 54 | 6.0 | 12.0 | 0.00 | 0.00 | 0.00 | 88 | 1007.9 |
| 20260505110304 | 50 | 32 | 6.0 | 14.0 | 0.00 | 0.00 | 0.00 | 89 | 1008.1 |
| 20260505101804 | 51 | 44 | 6.0 | 10.0 | 0.00 | 0.00 | 0.00 | 90 | 1007.8 |
| 20260505101303 | 51 | 30 | 3.0 | 8.0 | 0.00 | 0.00 | 0.00 | 90 | 1008.1 |
| 20260505100804 | 51 | 33 | 3.0 | 8.0 | 0.00 | 0.00 | 0.00 | 89 | 1008.3 |
| 20260505095804 | 52 | 3 | 7.0 | 13.0 | 0.00 | 0.00 | 0.00 | 88 | 1007.0 |
| 20260505095305 | 52 | 62 | 9.0 | 13.0 | 0.00 | 0.00 | 0.00 | 87 | 1006.7 |
| 20260505094804 | 52 | 63 | 7.0 | 10.0 | 0.00 | 0.00 | 0.00 | 86 | 1007.8 |
| 20260505094303 | 52 | 29 | 6.0 | 9.0 | 0.00 | 0.00 | 0.00 | 87 | 1008.2 |
| 20260505093804 | 52 | 40 | 5.0 | 12.0 | 0.00 | 0.00 | 0.00 | 88 | 1008.1 |
| 20260505093303 | 52 | 38 | 5.0 | 12.0 | 0.00 | 0.00 | 0.00 | 88 | 1008.0 |
| 20260505092804 | 53 | 35 | 7.0 | 12.0 | 0.00 | 0.00 | 0.00 | 88 | 1007.7 |
| 20260505092305 | 53 | 15 | 5.0 | 9.0 | 0.00 | 0.00 | 0.00 | 89 | 1007.8 |
| 20260505091805 | 53 | 22 | 5.0 | 10.0 | 0.00 | 0.00 | 0.00 | 89 | 1007.4 |
| 20260505090803 | 53 | 56 | 7.0 | 14.0 | 0.00 | 0.00 | 0.00 | 90 | 1006.0 |
| 20260505090303 | 53 | 64 | 9.0 | 18.0 | 0.00 | 0.00 | 0.00 | 90 | 1006.0 |
| 20260505085804 | 53 | 53 | 9.0 | 14.0 | 0.00 | 0.00 | 0.00 | 90 | 1006.0 |
| 20260505085305 | 53 | 48 | 8.0 | 17.0 | 0.00 | 0.00 | 0.00 | 89 | 1006.5 |
| 20260505084803 | 53 | 52 | 8.0 | 13.0 | 0.00 | 0.00 | 0.00 | 88 | 1006.5 |
| 20260505084304 | 53 | 47 | 11.0 | 17.0 | 0.00 | 0.00 | 0.00 | 89 | 1006.5 |
| 20260505083804 | 54 | 45 | 9.0 | 15.0 | 0.00 | 0.00 | 0.00 | 90 | 1006.8 |
| 20260505082305 | 55 | 40 | 10.0 | 16.0 | 0.00 | 0.00 | 0.00 | 90 | 1006.1 |
| 20260505081803 | 55 | 29 | 8.0 | 14.0 | 0.00 | 0.00 | 0.00 | 90 | 1006.1 |
| 20260505081303 | 55 | 19 | 9.0 | 15.0 | 0.00 | 0.00 | 0.00 | 90 | 1006.2 |
| 20260505080803 | 56 | 27 | 9.0 | 14.0 | 0.00 | 0.00 | 0.00 | 89 | 1006.0 |
| 20260505080304 | 56 | 23 | 9.0 | 14.0 | 0.00 | 0.00 | 0.00 | 89 | 1006.0 |
| 20260505075804 | 56 | 27 | 9.0 | 16.0 | 0.00 | 0.00 | 0.00 | 88 | 1005.7 |
| 20260505075304 | 57 | 33 | 8.0 | 15.0 | 0.00 | 0.00 | 0.00 | 86 | 1005.4 |
| 20260505074804 | 57 | 34 | 9.0 | 15.0 | 0.00 | 0.00 | 0.00 | 86 | 1005.6 |
| 20260505073804 | 61 | 12 | 9.0 | 16.0 | 0.00 | 0.00 | 0.00 | 78 | 1005.6 |
| 20260505073304 | 64 | 356 | 9.0 | 20.0 | 0.00 | 0.00 | 0.00 | 71 | 1005.9 |
| 20260505072803 | 67 | 301 | 12.0 | 28.0 | 0.00 | 0.00 | 0.00 | 67 | 1005.9 |
| 20260505072305 | 67 | 280 | 4.0 | 8.0 | 0.00 | 0.00 | 0.00 | 74 | 1004.5 |
| 20260505071803 | 67 | 259 | 3.0 | 5.0 | 0.00 | 0.00 | 0.00 | 73 | 1004.3 |
| 20260505071304 | 67 | 242 | 4.0 | 6.0 | 0.00 | 0.00 | 0.00 | 72 | 1004.3 |
| 20260505070803 | 67 | 233 | 5.0 | 8.0 | 0.00 | 0.00 | 0.00 | 72 | 1004.4 |
| 20260505070304 | 67 | 244 | 3.0 | 7.0 | 0.00 | 0.00 | 0.00 | 72 | 1004.3 |
| 20260505065804 | 67 | 237 | 5.0 | 7.0 | 0.00 | 0.00 | 0.00 | 72 | 1004.3 |
| 20260505065304 | 67 | 244 | 5.0 | 8.0 | 0.00 | 0.00 | 0.00 | 72 | 1004.2 |
| 20260505064803 | 67 | 220 | 5.0 | 8.0 | 0.00 | 0.00 | 0.00 | 72 | 1004.1 |
| 20260505064303 | 67 | 217 | 3.0 | 6.0 | 0.00 | 0.00 | 0.00 | 71 | 1004.0 |
| 20260505063304 | 67 | 219 | 4.0 | 7.0 | 0.00 | 0.00 | 0.00 | 72 | 1004.1 |
| 20260505062803 | 67 | 218 | 4.0 | 8.0 | 0.00 | 0.00 | 0.00 | 72 | 1004.2 |
| 20260505062304 | 67 | 234 | 5.0 | 7.0 | 0.00 | 0.00 | 0.00 | 71 | 1004.4 |
| 20260505061804 | 68 | 233 | 5.0 | 6.0 | 0.00 | 0.00 | 0.00 | 71 | 1004.3 |
| 20260505061304 | 68 | 220 | 4.0 | 7.0 | 0.00 | 0.00 | 0.00 | 71 | 1004.3 |
| 20260505060803 | 68 | 211 | 4.0 | 7.0 | 0.00 | 0.00 | 0.00 | 71 | 1004.2 |
| 20260505055803 | 68 | 211 | 2.0 | 8.0 | 0.00 | 0.00 | 0.00 | 71 | 1004.0 |
| 20260505055304 | 68 | 196 | 3.0 | 6.0 | 0.00 | 0.00 | 0.00 | 71 | 1004.1 |
| 20260505054804 | 68 | 202 | 4.0 | 7.0 | 0.00 | 0.00 | 0.00 | 70 | 1004.1 |
| 20260505054303 | 68 | 207 | 4.0 | 7.0 | 0.00 | 0.00 | 0.00 | 70 | 1004.0 |
| 20260505053804 | 68 | 201 | 4.0 | 7.0 | 0.00 | 0.00 | 0.00 | 70 | 1003.8 |
| 20260505053304 | 68 | 201 | 4.0 | 8.0 | 0.00 | 0.00 | 0.00 | 69 | 1003.9 |
| 20260505052804 | 68 | 198 | 5.0 | 6.0 | 0.00 | 0.00 | 0.00 | 69 | 1003.9 |
| 20260505051804 | 68 | 215 | 5.0 | 10.0 | 0.00 | 0.00 | 0.00 | 69 | 1004.0 |
| 20260505050812 | 68 | 219 | 5.0 | 8.0 | 0.00 | 0.00 | 0.00 | 70 | 1004.0 |
| 20260505050303 | 68 | 189 | 3.0 | 8.0 | 0.00 | 0.00 | 0.00 | 70 | 1004.0 |
| 20260505041304 | 70 | 213 | 1.0 | 3.0 | 0.00 | 0.00 | 0.00 | 66 | 1004.5 |
| 20260505040804 | 70 | 197 | 3.0 | 7.0 | 0.00 | 0.00 | 0.00 | 65 | 1004.5 |
| 20260505035304 | 71 | 211 | 4.0 | 8.0 | 0.00 | 0.00 | 0.00 | 65 | 1004.8 |
| 20260505034804 | 71 | 198 | 4.0 | 7.0 | 0.00 | 0.00 | 0.00 | 65 | 1004.9 |
| 20260505034304 | 71 | 193 | 2.0 | 6.0 | 0.00 | 0.00 | 0.00 | 65 | 1005.0 |
| 20260505033806 | 71 | 200 | 3.0 | 6.0 | 0.00 | 0.00 | 0.00 | 64 | 1005.0 |
| 20260505033304 | 71 | 205 | 3.0 | 6.0 | 0.00 | 0.00 | 0.00 | 65 | 1005.0 |
| 20260505032803 | 71 | 217 | 3.0 | 7.0 | 0.00 | 0.00 | 0.00 | 64 | 1005.0 |
| 20260505032304 | 71 | 211 | 3.0 | 5.0 | 0.00 | 0.00 | 0.00 | 66 | 1005.0 |
| 20260505031803 | 71 | 222 | 3.0 | 5.0 | 0.00 | 0.00 | 0.00 | 65 | 1004.9 |
| 20260505031304 | 71 | 206 | 2.0 | 7.0 | 0.00 | 0.00 | 0.00 | 65 | 1004.8 |
| 20260505030803 | 71 | 231 | 1.0 | 5.0 | 0.00 | 0.00 | 0.00 | 64 | 1004.8 |
| 20260505030303 | 71 | 226 | 2.0 | 5.0 | 0.00 | 0.00 | 0.00 | 64 | 1004.7 |
| 20260505025804 | 71 | 257 | 3.0 | 5.0 | 0.00 | 0.00 | 0.00 | 63 | 1004.7 |
| 20260505025305 | 72 | 252 | 3.0 | 8.0 | 0.00 | 0.00 | 0.00 | 63 | 1004.5 |
| 20260505024803 | 72 | 215 | 2.0 | 5.0 | 0.00 | 0.00 | 0.00 | 62 | 1004.4 |
| 20260505023803 | 72 | 243 | 2.0 | 6.0 | 0.00 | 0.00 | 0.00 | 62 | 1004.2 |
| 20260505022304 | 72 | 229 | 6.0 | 14.0 | 0.00 | 0.00 | 0.00 | 62 | 1003.9 |
| 20260505021804 | 72 | 227 | 7.0 | 15.0 | 0.00 | 0.00 | 0.00 | 62 | 1003.8 |
| 20260505020803 | 72 | 209 | 7.0 | 10.0 | 0.00 | 0.00 | 0.00 | 62 | 1003.4 |
| 20260505020303 | 73 | 221 | 5.0 | 9.0 | 0.00 | 0.00 | 0.00 | 62 | 1003.5 |
| 20260505015803 | 73 | 233 | 6.0 | 12.0 | 0.00 | 0.00 | 0.00 | 61 | 1003.5 |
| 20260505015304 | 73 | 201 | 7.0 | 13.0 | 0.00 | 0.00 | 0.00 | 61 | 1003.2 |
| 20260505014804 | 73 | 204 | 7.0 | 13.0 | 0.00 | 0.00 | 0.00 | 62 | 1003.0 |
| 20260505014304 | 73 | 198 | 7.0 | 12.0 | 0.00 | 0.00 | 0.00 | 62 | 1002.8 |
| 20260505013804 | 73 | 200 | 8.0 | 14.0 | 0.00 | 0.00 | 0.00 | 62 | 1002.8 |
| 20260505013304 | 74 | 197 | 7.0 | 15.0 | 0.00 | 0.00 | 0.00 | 62 | 1002.8 |
| 20260505012804 | 74 | 203 | 10.0 | 16.0 | 0.00 | 0.00 | 0.00 | 61 | 1002.8 |
| 20260505012304 | 74 | 200 | 11.0 | 15.0 | 0.00 | 0.00 | 0.00 | 62 | 1002.8 |
| 20260505011804 | 74 | 189 | 8.0 | 14.0 | 0.00 | 0.00 | 0.00 | 62 | 1003.0 |
| 20260505011303 | 74 | 215 | 6.0 | 9.0 | 0.00 | 0.00 | 0.00 | 62 | 1003.2 |
| 20260505010804 | 75 | 200 | 5.0 | 9.0 | 0.00 | 0.00 | 0.00 | 62 | 1003.0 |
| 20260505010304 | 75 | 190 | 6.0 | 13.0 | 0.00 | 0.00 | 0.00 | 60 | 1002.9 |
| 20260505005804 | 75 | 208 | 8.0 | 15.0 | 0.00 | 0.00 | 0.00 | 60 | 1002.7 |
| 20260505004804 | 75 | 202 | 8.0 | 14.0 | 0.00 | 0.00 | 0.00 | 59 | 1002.9 |
| 20260505003804 | 76 | 211 | 10.0 | 14.0 | 0.00 | 0.00 | 0.00 | 59 | 1003.0 |
| 20260505003304 | 76 | 217 | 9.0 | 13.0 | 0.00 | 0.00 | 0.00 | 60 | 1003.0 |
| 20260505002804 | 76 | 210 | 9.0 | 15.0 | 0.00 | 0.00 | 0.00 | 60 | 1002.8 |
| 20260505002304 | 76 | 223 | 8.0 | 13.0 | 0.00 | 0.00 | 0.00 | 60 | 1002.8 |
| 20260505001304 | 77 | 216 | 10.0 | 16.0 | 0.00 | 0.00 | 0.00 | 59 | 1002.7 |
| 20260505000804 | 77 | 203 | 10.0 | 14.0 | 0.00 | 0.00 | 0.00 | 58 | 1002.6 |
| 20260504235804 | 78 | 203 | 9.0 | 16.0 | 0.00 | 0.00 | 0.00 | 57 | 1002.5 |
| 20260504235304 | 78 | 209 | 9.0 | 16.0 | 0.00 | 0.00 | 0.00 | 56 | 1002.4 |
| 20260504234803 | 78 | 204 | 9.0 | 15.0 | 0.00 | 0.00 | 0.00 | 56 | 1002.4 |
| 20260504234304 | 78 | 194 | 7.0 | 15.0 | 0.00 | 0.00 | 0.00 | 56 | 1002.4 |
| 20260504233804 | 78 | 206 | 12.0 | 16.0 | 0.00 | 0.00 | 0.00 | 55 | 1002.4 |
| 20260504233304 | 78 | 201 | 9.0 | 14.0 | 0.00 | 0.00 | 0.00 | 55 | 1002.4 |
| 20260504232803 | 78 | 206 | 10.0 | 14.0 | 0.00 | 0.00 | 0.00 | 54 | 1002.4 |
| 20260504232304 | 79 | 206 | 9.0 | 14.0 | 0.00 | 0.00 | 0.00 | 55 | 1002.6 |
| 20260504231804 | 79 | 206 | 7.0 | 14.0 | 0.00 | 0.00 | 0.00 | 55 | 1002.5 |
| 20260504231304 | 79 | 203 | 10.0 | 15.0 | 0.00 | 0.00 | 0.00 | 54 | 1002.5 |
| 20260504230304 | 79 | 208 | 7.0 | 13.0 | 0.00 | 0.00 | 0.00 | 54 | 1002.5 |
| 20260504225804 | 79 | 198 | 7.0 | 12.0 | 0.00 | 0.00 | 0.00 | 55 | 1002.5 |
| 20260504225304 | 79 | 189 | 7.0 | 12.0 | 0.00 | 0.00 | 0.00 | 54 | 1002.4 |
| 20260504224803 | 79 | 205 | 7.0 | 12.0 | 0.00 | 0.00 | 0.00 | 54 | 1002.5 |
| 20260504224304 | 79 | 214 | 8.0 | 10.0 | 0.00 | 0.00 | 0.00 | 53 | 1002.5 |
| 20260504223804 | 80 | 213 | 9.0 | 12.0 | 0.00 | 0.00 | 0.00 | 53 | 1002.4 |
| 20260504223304 | 80 | 225 | 8.0 | 12.0 | 0.00 | 0.00 | 0.00 | 52 | 1002.4 |
| 20260504222305 | 81 | 198 | 7.0 | 17.0 | 0.00 | 0.00 | 0.00 | 51 | 1002.3 |
| 20260504221804 | 81 | 221 | 11.0 | 14.0 | 0.00 | 0.00 | 0.00 | 49 | 1002.3 |
| 20260504221304 | 81 | 195 | 10.0 | 16.0 | 0.00 | 0.00 | 0.00 | 49 | 1002.3 |
| 20260504220804 | 81 | 199 | 8.0 | 14.0 | 0.00 | 0.00 | 0.00 | 49 | 1002.3 |
| 20260504220303 | 81 | 204 | 8.0 | 14.0 | 0.00 | 0.00 | 0.00 | 49 | 1002.3 |
| 20260504215804 | 81 | 189 | 6.0 | 13.0 | 0.00 | 0.00 | 0.00 | 50 | 1002.4 |
| 20260504215304 | 81 | 214 | 11.0 | 16.0 | 0.00 | 0.00 | 0.00 | 49 | 1002.5 |
| 20260504214804 | 81 | 225 | 12.0 | 15.0 | 0.00 | 0.00 | 0.00 | 48 | 1002.6 |
| 20260504214305 | 81 | 225 | 13.0 | 16.0 | 0.00 | 0.00 | 0.00 | 48 | 1002.6 |
| 20260504213804 | 82 | 226 | 12.0 | 17.0 | 0.00 | 0.00 | 0.00 | 47 | 1002.6 |
| 20260504213303 | 82 | 226 | 12.0 | 16.0 | 0.00 | 0.00 | 0.00 | 46 | 1002.6 |
| 20260504212804 | 82 | 226 | 9.0 | 14.0 | 0.00 | 0.00 | 0.00 | 48 | 1002.6 |
| 20260504212304 | 82 | 214 | 10.0 | 15.0 | 0.00 | 0.00 | 0.00 | 47 | 1002.7 |
| 20260504211803 | 82 | 227 | 12.0 | 18.0 | 0.00 | 0.00 | 0.00 | 46 | 1002.7 |
| 20260504211303 | 82 | 233 | 11.0 | 18.0 | 0.00 | 0.00 | 0.00 | 48 | 1002.8 |
| 20260504210804 | 82 | 223 | 11.0 | 18.0 | 0.00 | 0.00 | 0.00 | 48 | 1002.8 |
| 20260504210304 | 82 | 223 | 11.0 | 16.0 | 0.00 | 0.00 | 0.00 | 47 | 1002.9 |
| 20260504205803 | 81 | 225 | 14.0 | 20.0 | 0.00 | 0.00 | 0.00 | 47 | 1003.1 |
| 20260504205304 | 81 | 221 | 14.0 | 20.0 | 0.00 | 0.00 | 0.00 | 46 | 1003.2 |
| 20260504204804 | 81 | 223 | 13.0 | 20.0 | 0.00 | 0.00 | 0.00 | 48 | 1003.3 |
| 20260504204303 | 81 | 215 | 10.0 | 15.0 | 0.00 | 0.00 | 0.00 | 49 | 1003.3 |
| 20260504203804 | 80 | 223 | 12.0 | 17.0 | 0.00 | 0.00 | 0.00 | 50 | 1003.4 |
| 20260504203303 | 81 | 222 | 11.0 | 16.0 | 0.00 | 0.00 | 0.00 | 49 | 1003.5 |
| 20260504202803 | 81 | 226 | 11.0 | 17.0 | 0.00 | 0.00 | 0.00 | 49 | 1003.5 |
| 20260504202305 | 80 | 207 | 11.0 | 17.0 | 0.00 | 0.00 | 0.00 | 48 | 1003.5 |
| 20260504201804 | 80 | 227 | 10.0 | 15.0 | 0.00 | 0.00 | 0.00 | 50 | 1003.6 |
| 20260504201303 | 80 | 228 | 13.0 | 18.0 | 0.00 | 0.00 | 0.00 | 48 | 1003.6 |
| 20260504200803 | 80 | 220 | 10.0 | 17.0 | 0.00 | 0.00 | 0.00 | 49 | 1003.7 |
| 20260504195804 | 80 | 211 | 13.0 | 17.0 | 0.00 | 0.00 | 0.00 | 48 | 1003.7 |
| 20260504195304 | 80 | 213 | 13.0 | 20.0 | 0.00 | 0.00 | 0.00 | 49 | 1003.7 |
| 20260504194803 | 80 | 220 | 13.0 | 20.0 | 0.00 | 0.00 | 0.00 | 48 | 1003.7 |
| 20260504194303 | 80 | 231 | 12.0 | 17.0 | 0.00 | 0.00 | 0.00 | 48 | 1003.8 |
| 20260504193804 | 80 | 198 | 11.0 | 16.0 | 0.00 | 0.00 | 0.00 | 48 | 1003.7 |
| 20260504193304 | 80 | 221 | 13.0 | 17.0 | 0.00 | 0.00 | 0.00 | 47 | 1003.9 |
| 20260504192804 | 80 | 204 | 13.0 | 20.0 | 0.00 | 0.00 | 0.00 | 48 | 1003.8 |
| 20260504192304 | 80 | 232 | 12.0 | 18.0 | 0.00 | 0.00 | 0.00 | 47 | 1003.9 |
| 20260504191804 | 80 | 211 | 13.0 | 17.0 | 0.00 | 0.00 | 0.00 | 49 | 1003.8 |
| 20260504191303 | 80 | 215 | 12.0 | 16.0 | 0.00 | 0.00 | 0.00 | 49 | 1003.9 |
| 20260504190803 | 80 | 203 | 10.0 | 15.0 | 0.00 | 0.00 | 0.00 | 49 | 1004.0 |
| 20260504190304 | 80 | 227 | 13.0 | 21.0 | 0.00 | 0.00 | 0.00 | 49 | 1004.0 |
| 20260504185304 | 79 | 235 | 12.0 | 18.0 | 0.00 | 0.00 | 0.00 | 48 | 1004.1 |
| 20260504184804 | 79 | 240 | 10.0 | 16.0 | 0.00 | 0.00 | 0.00 | 49 | 1004.1 |
| 20260504184303 | 79 | 224 | 13.0 | 17.0 | 0.00 | 0.00 | 0.00 | 49 | 1004.2 |
| 20260504183804 | 79 | 242 | 10.0 | 17.0 | 0.00 | 0.00 | 0.00 | 49 | 1004.1 |
| 20260504183304 | 79 | 230 | 12.0 | 17.0 | 0.00 | 0.00 | 0.00 | 50 | 1004.2 |
| 20260504182803 | 79 | 234 | 13.0 | 16.0 | 0.00 | 0.00 | 0.00 | 49 | 1004.1 |
| 20260504181304 | 78 | 222 | 16.0 | 20.0 | 0.00 | 0.00 | 0.00 | 49 | 1004.2 |
| 20260504180803 | 78 | 220 | 13.0 | 25.0 | 0.00 | 0.00 | 0.00 | 49 | 1004.4 |
| 20260504180303 | 78 | 243 | 13.0 | 21.0 | 0.00 | 0.00 | 0.00 | 49 | 1004.3 |
| 20260504175304 | 78 | 221 | 11.0 | 15.0 | 0.00 | 0.00 | 0.00 | 49 | 1004.5 |
| 20260504174303 | 77 | 237 | 12.0 | 17.0 | 0.00 | 0.00 | 0.00 | 49 | 1004.5 |
| 20260504173803 | 77 | 243 | 14.0 | 20.0 | 0.00 | 0.00 | 0.00 | 48 | 1004.5 |
| 20260504173304 | 76 | 226 | 12.0 | 22.0 | 0.00 | 0.00 | 0.00 | 49 | 1004.5 |
| 20260504172304 | 76 | 242 | 17.0 | 24.0 | 0.00 | 0.00 | 0.00 | 48 | 1004.5 |
| 20260504171804 | 76 | 237 | 17.0 | 23.0 | 0.00 | 0.00 | 0.00 | 48 | 1004.5 |
| 20260504171304 | 76 | 236 | 14.0 | 22.0 | 0.00 | 0.00 | 0.00 | 50 | 1004.5 |
| 20260504170804 | 76 | 237 | 18.0 | 23.0 | 0.00 | 0.00 | 0.00 | 49 | 1004.5 |
| 20260504160303 | 72 | 237 | 10.0 | 15.0 | 0.00 | 0.00 | 0.00 | 52 | 1004.8 |
| 20260504150803 | 71 | 228 | 16.0 | 21.0 | 0.00 | 0.00 | 0.00 | 52 | 1004.8 |
| 20260504150304 | 71 | 230 | 15.0 | 21.0 | 0.00 | 0.00 | 0.00 | 53 | 1004.7 |
| 20260504141304 | 68 | 224 | 17.0 | 22.0 | 0.00 | 0.00 | 0.00 | 54 | 1005.0 |
| 20260504140803 | 68 | 230 | 14.0 | 21.0 | 0.00 | 0.00 | 0.00 | 54 | 1005.1 |
| 20260504140304 | 67 | 225 | 14.0 | 20.0 | 0.00 | 0.00 | 0.00 | 55 | 1005.1 |
| 20260504130303 | 64 | 222 | 10.0 | 18.0 | 0.00 | 0.00 | 0.00 | 60 | 1005.0 |
| 20260504120304 | 62 | 215 | 10.0 | 16.0 | 0.00 | 0.00 | 0.00 | 60 | 1005.2 |